Location: Newark
(45.9167°N, 5.5000°E)
Time: 21:06:28
(UTC+00:00)

N. Korean satellite - Pass Details

Date: 27 January 2020
Orbit: 456 x 505 km, 97.2° (Epoch: 23 February)

Event Time Altitude Azimuth Distance (km) Brightness Sun altitude
Rises 17:02:26 0° 185° (S) 2,461 10.5 -5.1°
Reaches altitude 10° 17:04:34 10° 195° (SSW) 1,593 9.7 -5.5°
Maximum altitude 17:07:44 35° 263° (W) 762 8.4 -6.0°
Drops below altitude 10° 17:10:56 10° 330° (NNW) 1,614 9.3 -6.5°
Sets 17:13:07 0° 340° (NNW) 2,499 10.2 -6.9°
